Regional Weather Roundup
Issued by NWS

Home | Current Version | Previous Version | Text Only | Print | Product List | Glossary Off
Versions: 1 2 3 4 5 6 7 8 9 10 11 12 13 14 15 16 17 18 19 20 21 22 23 24 25 26 27

000
ASUS45 KTFX 191710
RWRMT
MONTANA REGIONAL WEATHER ROUNDUP
NATIONAL WEATHER SERVICE GREAT FALLS MT
1100 AM MDT THU APR 19 2018

NOTE: "FAIR" INDICATES FEW OR NO CLOUDS BELOW 12000 FEET WITH NO
SIGNIFICANT WEATHER AND/OR OBSTRUCTIONS TO VISIBILITY.

MTZ001>007-043-191800-
WEST OF THE DIVIDE

CITY           SKY/WX    TMP DP  RH WIND       PRES   REMARKS
KALISPELL      FAIR      47  27  45 NE9       30.14S
MISSOULA       FAIR      47  27  45 CALM      30.11F
BUTTE          FAIR      44  20  38 N5        30.08F
MULLAN PASS    FAIR      40  19  43 CALM      30.09R
ANACONDA         N/A     45  21  39 N6        30.09S
DEER LODGE       N/A     45  23  42 CALM      30.12S
HAMILTON         N/A     45  25  45 MISG      30.11S
PLAINS           N/A     47  32  56 MISG      30.14
RONAN            N/A     45  25  45 CALM      30.16S
$$

MTZ008-052>055-191800-
SOUTHWEST MONTANA

CITY           SKY/WX    TMP DP  RH WIND       PRES   REMARKS
BOZEMAN        FAIR      45  26  47 N3        30.10F
DILLON         FAIR      41  24  51 NE6       30.08S
ENNIS          PTSUNNY   41  23  48 CALM      30.11S
W YELLOWSTONE  FAIR      39  12  33 CALM      30.04S
THREE FORKS      N/A     45  26  47 N2        30.08F
TWIN BRIDGES     N/A     45  23  42 N9        30.05
$$

MTZ009-010-012-014-046-048-049-054-191800-
EAST SLOPES AND CENTRAL MONTANA

CITY           SKY/WX    TMP DP  RH WIND       PRES   REMARKS
CUT BANK         N/A     42  32  67 VRB3      30.15S
GREAT FALLS    FAIR      44  29  55 VRB5      30.14S
HELENA         FAIR      46  25  43 VRB3      30.12S
AUGUSTA        FAIR      41  28  60 N7        30.13S
BOWMANS CRNR   FAIR      41  26  54 NE3       30.11F
CHOTEAU          N/A     43  30  61 VRB6      30.16F
FAIRFIELD      FAIR      42  32  68 N6        30.13F
POWER          FAIR      41  31  67 NW6       30.13F
RAYNESFORD     FAIR      53  23  32 NE10      30.10F
ULM            PTSUNNY   42  28  57 CALM      30.14S
WHITE SULPHUR    N/A     43  23  45 VRB3      30.10S
$$

MTZ011-013-016-021-045-047-050-051-191800-
NORTH CENTRAL MONTANA

CITY           SKY/WX    TMP DP  RH WIND       PRES   REMARKS
HAVRE          FAIR      49  38  65 E17       30.17F
LEWISTOWN      FAIR      50  28  42 E17       30.13S
N BAR RANCH    FAIR      46  27  46 E8G15     30.18S
CHINOOK          N/A     43  37  81 MISG      30.21F
GEYSER         FAIR      53  22  30 SE13      30.11F
GRASS RANGE    FAIR      48  30  49 E12       30.13F
STANFORD       FAIR      51  22  31 SE16G23   30.11F
$$

MTZ017>020-022>027-061-062-191800-
NORTHEAST MONTANA

CITY           SKY/WX    TMP DP  RH WIND       PRES   REMARKS
GLASGOW        FAIR      42  35  76 E23       30.28F
GLENDIVE       FAIR      45  38  76 NE9       30.31F
JORDAN           N/A     51  37  58 E15       30.23F
MALTA          MOSUNNY   41  36  81 E14       30.25S
SIDNEY         CLOUDY    44  37  76 E8        30.36F
WOLF POINT     CLOUDY    39  37  92 E13       30.34F FOG     WCI  31
PLENTYWOOD       N/A     34  34 100 E10       30.38F WCI  26
POPLAR           N/A     37  36  93 E12       30.36S WCI  30
SCOBEY           N/A     42  31  65 N7        30.30
$$

MTZ028>42-056>058-191800-
SOUTHCENTRAL AND SOUTHEAST MONTANA

CITY           SKY/WX    TMP DP  RH WIND       PRES   REMARKS
BAKER          FAIR      52  35  52 SE18      30.30F
BILLINGS       FAIR      49  30  48 VRB6      30.13F
LIVINGSTON     FAIR      46  26  45 E13       30.10F
MILES CITY     FAIR      55  34  45 SE20      30.23F
BIG TIMBER     SUNNY     48  25  40 E9        30.12F
EKALAKA          N/A     52  31  44 E16       30.22
FORSYTH          N/A     54  32  43 MISG      30.20R
HARLOWTON      FAIR      45  26  47 SE5       30.14S
LAUREL           N/A     50  27  40 NE8       30.13F
$$

REGIONAL REPORTS...DAKOTAS

CITY           SKY/WX    TMP DP  RH WIND       PRES   REMARKS
WILLISTON      CLOUDY    41  35  79 SE7       30.39F
MINOT          CLOUDY    41  34  76 VRB3      30.43R
DICKINSON      FAIR      50  36  58 VRB6      30.33F
BEACH          FAIR      52  36  54 S14       30.35F
CROSBY         CLOUDY    36  36 100 VRB5      30.42F
TIOGA          CLOUDY    36  36 100 CALM      30.42S FOG
WATFORD CITY   PTSUNNY   41  39  93 E10       30.38F FOG
BISMARCK       FAIR      46  35  65 CALM      30.43F
GRAND FORKS    FAIR      51  33  50 S5        30.42R
FARGO          FAIR      50  31  48 W7        30.43S
BUFFALO SD       N/A     53  32  44 SE14G25   30.23F
RAPID CITY     FAIR      52  30  43 SE17G23   30.31F
$$

REGIONAL REPORTS...WYOMING/IDAHO/WASHINGTON

CITY           SKY/WX    TMP DP  RH WIND       PRES   REMARKS
GILLETTE         N/A    N/A N/A N/A MISG      30.19F
SHERIDAN       FAIR      53  25  33 SE29G39   30.11F
BUFFALO WY     FAIR      48  24  39 S23       30.17S
CODY           FAIR      46  22  38 SW6       30.12F
YELLOWSTONE LA   N/A     35  13  40 SE3       30.10S
IDAHO FALLS    PTSUNNY   49  27  42 N14       29.96S
SALMON         FAIR      48  25  40 CALM      30.05F
BOISE          PTSUNNY   50  32  50 W5        29.94S
SPOKANE        FAIR      48  33  56 N10       30.15R
$$

REGIONAL REPORTS...ALBERTA

CITY           SKY/WX    TMP DP  RH WIND       PRES   REMARKS
CALGARY        MOSUNNY   45  23  42 S8        30.13F
CARDSTON         N/A     46  27  46 S2          N/A
EDMONTON       SUNNY     46  25  42 S15       30.14F
FORT MCMURRAY  SUNNY     50  27  40 SW14G20   30.08F
HIGH LEVEL     MOSUNNY   45  27  49 SE6       29.84F
LETHBRIDGE     PTSUNNY   45  30  57 SE3       30.15F
LLOYDMINSTER   MOSUNNY   41  32  70 S7        30.22S
MEDICINE HAT   PTSUNNY   52  32  46 VRB3      30.18F
MILK RIVER       N/A     48  30  49 SE14G20     N/A
ONEFOUR          N/A     41  34  75 E16         N/A
PEACE RIVER    MOSUNNY   39  25  56 S13       30.02F WCI  32
PINCHER CREEK  SUNNY     41  25  52 N3        30.14S
WATERTON GATE    N/A     46  23  39 NW2         N/A
$$

REGIONAL REPORTS...SASKATCHEWAN

CITY           SKY/WX    TMP DP  RH WIND       PRES   REMARKS
CORONACH         N/A     36  36 100 E9          N/A  WCI  29
CYPRESS HILLS    N/A     39  28  65 SE9         N/A
ESTEVAN        MOSUNNY   39  34  81 E5        30.42S
MOOSE JAW        N/A     46  30  53 SE16        N/A
PRINCE ALBERT  MOSUNNY   39  28  65 S6        30.34S
REGINA         MOSUNNY   32  32 100 SE13      30.39S WCI  22
ROCKGLEN         N/A     36  36 100 SE9         N/A  WCI  29
SASKATOON      MOSUNNY   48  27  43 S16G22    30.32F
SWIFT CURRENT  SUNNY     46  32  57 S12       30.27F
VAL MARIE        N/A     46  34  61 SE14G21     N/A
$$




USA.gov is the U.S. government's official web portal to all federal, state and local government web resources and services.